Regional Weather Roundup
Issued by NWS

Home | Current Version | Previous Version | Graphics & Text | Print | Product List | Glossary On
Versions: 1 2 3 4 5 6 7 8 9 10 11 12 13 14 15 16 17 18 19 20 21 22 23 24 25 26 27 28 29 30 31 32 33 34 35 36 37 38 39 40 41 42 43 44 45 46 47 48 49 50
000
ASUS44 KMEG 010300
RWRTN
TENNESSEE HOURLY STATE WEATHER ROUNDUP
NATIONAL WEATHER SERVICE MEMPHIS TN
900 PM CST SAT FEB 28 2015

TNZ002-004-019-021-049-052-054-088>092-010400-
WEST TENNESSEE

CITY           SKY/WX    TMP DP  RH WIND       PRES   REMARKS
MEMPHIS INTL   CLOUDY    41  22  46 NE6       30.39R
NWS MEMPHIS      N/A     39 N/A N/A MISG        N/A
JACKSON        CLOUDY    41  23  48 N7        30.40R
DYERSBURG      CLOUDY    34  14  44 NE7       30.45R WCI  28
UNION CITY     PTCLDY    30  23  74 NE7       30.42R WCI  23
PARIS          CLOUDY    32  21  64 N8        30.42R WCI  25
LEXINGTON      MOCLDY    39  23  52 N6        30.38R WCI  35
SAVANNAH       PTCLDY    48  30  49 SE5       30.37R
$$

TNZ008-025-027-028-033-062-065-066-010400-
NORTH MIDDLE TENNESSEE

CITY           SKY/WX    TMP DP  RH WIND       PRES   REMARKS
NASHVILLE      CLOUDY    42  26  53 SE7       30.39F
CLARKSVILLE    CLOUDY    36  26  67 N8        30.43R WCI  30
COOKEVILLE     PTCLDY    45  30  57 S6        30.43R
CROSSVILLE     MOCLDY    40  27  59 S6        30.44R
$$

TNZ061-075-076-078-094-096-097-010400-
SOUTH MIDDLE TENNESSEE

CITY           SKY/WX    TMP DP  RH WIND       PRES   REMARKS
FAYETTEVILLE   CLOUDY    45  28  53 SE7         N/A
TULLAHOMA      CLOUDY    46  27  46 SE8       30.42S
WINCHESTER     CLOUDY    46  28  49 SE10      30.44S
COLUMBIA         N/A     48  32  53 SE6       30.37F
SHELBYVILLE    CLOUDY    46  30  53 SE7       30.43S
$$

TNZ017-018-042-046-047-010400-
NORTHEAST TENNESSEE

CITY           SKY/WX    TMP DP  RH WIND       PRES   REMARKS
TRI CITIES     CLOUDY    37  25  61 CALM      30.50R
ELIZABETHTON   MOCLDY    37  21  52 E6        30.51R WCI  33
$$

TNZ012-013-036-069-073-074-010400-
CENTRAL EAST TENNESSEE

CITY           SKY/WX    TMP DP  RH WIND       PRES   REMARKS
KNOXVILLE      CLOUDY    40  27  59 CALM      30.47F
OAK RIDGE      MOCLDY    39  27  62 CALM      30.48F
GATLINBURG     CLEAR     34  28  80 CALM      30.46F
$$

TNZ083-085-099-010400-
SOUTHEAST TENNESSEE

CITY           SKY/WX    TMP DP  RH WIND       PRES   REMARKS
CHATTANOOGA    PTCLDY    46  27  47 S6        30.50S
$$

SKY/WX REPORTED AS FAIR MEANS FEW OR NO CLOUDS BELOW
12 THOUSAND FEET.




USA.gov is the U.S. government's official web portal to all federal, state and local government web resources and services.